Regional Weather Roundup
Issued by NWS

Home | Current Version | Previous Version | Graphics & Text | Print | Product List | Glossary On
Versions: 1 2 3 4 5 6 7 8 9 10 11 12 13 14 15 16 17 18 19 20 21 22 23 24 25 26 27
000
ASUS45 KBOI 241210
RWRID

IDAHO REGIONAL WEATHER ROUNDUP
NATIONAL WEATHER SERVICE BOISE ID
600 AM MDT MON APR 24 2017

NOTE: "FAIR" INDICATES FEW OR NO CLOUDS BELOW 12000 FEET
WITH NO SIGNIFICANT WEATHER AND/OR OBSTRUCTIONS TO VISIBILITY

IDZ012-014-241300-
SOUTHWEST IDAHO


CITY           SKY/WX    TMP DP  RH WIND       PRES   REMARKS
BOISE          CLOUDY    47  41  80 E9        29.71S
CALDWELL       CLOUDY    48  41  76 S6        29.71F
MOUNTAIN HOME  CLOUDY    47  47 100 NW3       29.70F
$$

IDZ016-017-241300-
SOUTHCENTRAL IDAHO


CITY           SKY/WX    TMP DP  RH WIND       PRES   REMARKS
BURLEY         CLOUDY    42  37  82 CALM      29.71F
JEROME         LGT RAIN  46  40  79 CALM      29.72F
TWIN FALLS     MOCLDY    41  37  86 S6        29.72F
$$

IDZ019>023-241300-
SOUTHEAST IDAHO


CITY           SKY/WX    TMP DP  RH WIND       PRES   REMARKS
IDAHO FALLS    CLOUDY    45  37  73 S9        29.73S
POCATELLO      CLOUDY    45  37  73 SW8       29.73F
REXBURG        CLOUDY    41  36  82 CALM      29.70F
$$

IDZ006-010-011-018-031-032-241300-
CENTRAL IDAHO MOUNTAINS


CITY           SKY/WX    TMP DP  RH WIND       PRES   REMARKS
MCCALL         CLOUDY    35  32  88 CALM      29.67F
HAILEY         CLOUDY    39  32  75 CALM      29.74F
STANLEY          N/A     32  31  96 CALM      29.72F
SALMON         CLOUDY    37  34  87 CALM      29.71F
CHALLIS        LGT RAIN  39  35  86 S6        29.71F WCI  35
$$

IDZ002-004-006-007-026-241300-
NORTHERN IDAHO


CITY           SKY/WX    TMP DP  RH WIND       PRES   REMARKS
LEWISTON       CLOUDY    46  44  93 N5        29.74F
LOWELL           N/A     45  41  86 CALM      29.77F
COEUR D`ALENE  LGT RAIN  43  38  82 S9        29.71S
MULLAN PASS    LGT SNOW  29  29 100 W3        29.67F VSB 3/4
$$




USA.gov is the U.S. government's official web portal to all federal, state and local government web resources and services.